Location: Lewisville
(33.0462°N, 96.9942°W)
Time: 06:57:57
(UTC-05:00)

Envisat - Pass Details

Date: 05 September 2021
Orbit: 764 x 766 km, 98.2° (Epoch: 28 September)

Event Time Altitude Azimuth Distance (km) Brightness Sun altitude
Rises 06:24:50 0° 15° (NNE) 3,233 6.7 -9.1°
Reaches altitude 10° 06:27:10 10° 18° (NNE) 2,304 5.9 -8.7°
Maximum altitude 06:32:13 68° 101° (E) 820 3.4 -7.6°
Drops below altitude 10° 06:37:15 10° 185° (S) 2,290 5.3 -6.6°
Sets 06:39:33 0° 187° (S) 3,212 6.0 -6.1°
